GFSMA_700_spd_246.txt.gz
Wind_Speed
16 15 14 14 13 14 13 11 10 11 11 10 9 7 6 5 5 5 6 7 8 10 11 12 12 13 13 14 15 16 16 16 16 17 18 19 19 19 20 21 21 22 23
17 16 16 15 14 14 14 14 14 13 12 10 9 8 7 7 9 10 11 12 13 13 14 14 15 15 16 16 17 18 18 18 18 19 19 20 21 21 22 23 23 23 23
17 17 17 17 16 16 16 15 15 14 13 11 10 11 11 12 13 14 14 14 14 15 15 16 16 17 18 19 20 21 21 22 22 23 23 23 23 23 23 24 23 24 26
19 19 18 18 18 19 18 17 17 16 15 15 14 14 15 15 15 15 15 15 15 16 16 16 17 17 18 20 22 22 23 25 26 26 26 25 24 24 24 24 24 26 26
23 23 21 21 21 21 21 20 20 19 18 18 18 18 18 17 16 16 16 15 14 14 14 14 15 17 18 20 22 22 22 22 23 25 25 25 26 26 25 25 25 26 27
25 26 25 25 26 25 24 23 21 20 19 19 19 18 18 18 17 16 15 15 14 14 14 14 16 18 21 22 23 24 24 24 24 25 27 27 28 28 28 28 28 29 30
27 27 26 27 28 27 24 24 22 21 19 19 21 20 19 19 19 17 16 15 14 15 16 17 18 20 22 25 25 25 26 26 26 27 30 29 29 29 29 29 29 31 32
29 29 27 26 26 26 25 23 22 21 20 21 22 22 22 20 20 19 18 17 16 18 18 19 21 22 24 25 25 26 27 28 30 30 30 30 30 29 30 31 31 31 32
32 31 29 28 28 28 26 25 24 23 22 23 23 26 26 24 20 20 21 21 21 21 22 23 23 24 27 28 27 27 28 29 30 31 31 31 31 31 30 31 28 30 32
33 32 31 31 30 30 30 27 26 26 26 26 26 27 29 28 28 27 22 23 24 25 26 26 27 28 29 30 30 29 29 30 31 31 32 33 31 30 30 31 32 33 29
33 33 32 30 30 30 29 28 27 27 26 27 26 27 29 31 32 35 35 27 27 27 29 30 31 32 32 31 31 30 30 31 31 31 32 33 32 32 33 31 32 29 26
33 33 32 31 30 29 28 28 27 27 28 29 30 31 33 36 36 38 41 35 35 27 28 31 33 33 33 33 32 32 33 32 32 32 33 32 31 32 28 30 28 28 27
38 36 35 34 33 32 31 30 31 30 30 32 33 36 38 38 38 42 43 39 39 33 32 28 30 31 32 33 33 32 33 33 33 32 32 30 30 28 29 27 25 26 26
34 36 38 38 36 34 34 34 35 35 37 39 39 38 39 39 39 40 42 43 42 38 34 27 27 28 29 31 34 34 34 34 34 33 31 31 30 29 28 24 24 25 23
45 38 36 38 38 37 37 38 40 40 38 36 36 37 39 39 41 41 41 42 44 44 38 28 31 31 32 33 34 36 36 36 35 35 32 31 30 29 27 26 25 23 20
61 52 46 43 38 35 36 38 39 38 39 39 40 39 40 41 43 44 44 43 45 46 47 32 35 38 38 38 38 39 39 37 38 36 35 32 31 29 27 26 26 22 20
65 59 50 51 49 42 39 40 42 41 41 43 44 44 45 45 47 44 45 46 47 46 49 41 41 40 41 43 44 44 43 40 40 37 35 33 30 29 29 27 27 24 23
51 65 67 60 55 51 42 44 47 48 48 47 46 46 48 47 47 46 46 46 47 46 48 49 43 42 41 40 43 46 46 44 42 40 37 34 32 30 29 27 26 24 26
63 37 60 73 66 45 46 42 48 49 47 48 48 48 48 49 45 44 47 49 50 49 48 47 46 45 42 40 42 45 47 47 46 43 40 36 33 32 28 26 25 23 26
18 26 28 47 57 61 48 48 47 45 44 47 48 53 52 51 45 44 45 47 47 50 51 51 50 49 45 42 41 44 48 50 49 46 43 39 35 31 29 27 24 23 25
9 8 12 14 17 27 38 48 49 48 49 51 52 50 52 50 44 43 43 42 41 44 47 50 52 53 46 45 44 45 48 49 49 49 43 40 35 33 30 27 25 24 25
16 16 16 20 19 23 27 30 33 40 42 42 44 45 45 42 43 42 42 42 42 42 43 46 50 53 53 51 51 52 51 48 53 55 44 42 39 35 32 29 26 25 25
25 25 23 22 23 27 31 34 35 36 37 37 37 37 38 38 41 41 39 42 45 46 46 45 45 54 55 53 52 57 56 58 57 58 41 44 42 36 33 31 29 27 25
25 29 31 34 31 32 34 35 37 40 42 44 45 45 44 43 41 43 43 41 42 44 47 48 48 50 52 53 55 52 61 53 55 46 45 49 45 39 34 31 31 27 27
40 31 33 35 35 38 37 39 39 39 41 42 46 50 51 49 49 49 50 50 48 48 44 44 47 49 49 51 51 53 61 48 57 54 47 46 42 37 35 34 31 26 24
47 44 47 43 39 38 39 43 44 41 40 40 41 42 44 46 48 50 53 54 54 51 51 50 49 50 53 54 55 53 55 55 64 44 39 32 37 38 40 36 32 29 28

GFSMA_700_spd_249.txt.gz
Wind_Speed
16 16 15 15 14 13 13 13 13 14 15 15 14 13 12 11 9 8 7 7 8 9 10 11 12 13 14 15 15 15 16 17 17 18 19 19 19 19 19 20 20 21 21
17 17 17 17 16 16 16 15 15 16 16 15 14 13 12 11 10 9 10 10 11 11 11 12 13 15 16 17 18 19 19 20 21 21 22 23 23 23 23 22 22 22 22
17 18 18 18 18 18 19 18 17 17 16 15 14 13 12 12 12 13 13 12 13 13 13 14 15 17 18 18 19 20 21 22 23 24 25 25 25 25 25 24 23 23 23
19 20 19 19 20 20 20 20 19 18 17 15 15 15 15 16 16 15 15 13 13 13 15 16 16 17 17 17 18 18 19 21 22 23 23 23 23 24 24 25 25 25 25
22 22 21 21 22 22 22 21 21 20 18 18 18 19 19 19 18 16 14 14 14 15 15 16 17 17 17 18 19 19 19 20 21 23 24 24 25 26 26 27 27 26 26
27 26 25 24 25 25 24 23 22 22 22 22 22 22 21 20 18 17 16 16 16 16 17 17 18 18 19 21 22 22 22 22 22 23 25 26 27 28 28 29 29 28 29
31 31 30 30 30 29 27 27 27 27 27 25 26 23 22 21 21 19 18 16 17 19 20 20 20 20 21 22 24 24 24 24 24 25 27 29 29 29 30 31 31 31 32
32 33 32 32 33 33 32 31 30 29 28 27 26 25 24 23 22 21 20 20 20 22 22 22 22 23 24 25 26 26 26 26 27 27 27 27 27 27 28 29 30 30 31
35 35 34 33 33 34 33 31 31 30 28 28 29 30 28 26 22 23 24 25 25 25 24 25 26 27 29 29 30 30 29 28 29 30 30 29 29 29 28 28 29 30 29
36 38 37 36 35 35 35 33 33 32 32 31 32 30 29 28 26 27 25 25 25 26 28 29 31 33 34 35 34 32 31 30 31 31 31 30 30 30 30 29 28 32 29
40 40 40 38 38 38 37 37 37 36 34 34 31 31 30 29 29 32 32 29 30 30 31 31 33 36 38 39 38 35 33 32 32 31 31 31 30 30 29 28 28 27 26
41 41 42 41 40 40 39 39 39 38 37 35 34 32 31 31 31 35 39 35 38 33 35 33 33 33 36 40 41 38 35 33 33 33 32 32 30 30 28 26 27 27 27
45 42 42 44 42 39 40 41 41 40 38 37 34 34 34 36 36 38 41 39 40 38 39 34 33 33 33 37 39 40 36 34 33 34 33 32 31 31 28 28 29 27 26
48 47 46 47 49 48 45 44 43 42 40 37 38 38 39 39 40 41 41 41 44 44 41 36 36 35 35 34 37 38 38 37 36 35 34 34 33 32 31 30 30 27 26
55 54 52 51 50 53 54 52 50 46 45 43 42 43 45 44 42 40 39 41 43 47 46 38 41 37 39 39 38 38 39 39 38 38 38 36 36 34 33 31 31 28 26
60 60 60 54 55 52 53 57 56 53 52 49 48 48 47 43 42 41 41 42 46 51 55 45 41 42 42 43 43 42 42 42 42 42 41 39 38 37 34 33 30 28 26
57 63 65 62 61 61 54 54 55 55 54 51 51 47 45 42 42 45 45 46 48 52 57 52 45 45 45 46 46 45 44 43 43 43 43 42 41 38 37 34 31 29 27
32 49 53 59 63 68 64 52 45 40 44 47 44 44 44 45 47 48 48 47 50 53 55 56 45 47 47 48 47 47 46 45 43 43 42 43 44 42 39 37 33 30 27
36 32 33 39 38 56 68 64 62 53 49 47 43 45 49 48 48 49 48 50 49 51 45 46 49 50 49 48 51 49 47 45 45 45 43 44 46 45 43 40 36 33 30
20 22 29 36 38 41 48 56 57 60 44 44 36 32 42 45 47 48 49 51 49 48 43 45 46 48 48 47 49 50 49 46 46 47 44 43 44 49 48 43 37 36 32
9 11 12 16 20 24 37 48 59 65 64 50 59 52 48 47 50 49 49 47 48 44 42 45 44 45 45 43 43 43 47 48 48 45 46 45 45 48 55 49 39 38 36
11 13 14 16 15 15 17 23 32 26 37 37 38 46 56 46 42 40 37 40 42 39 38 40 40 42 44 44 41 41 42 43 48 47 44 45 46 47 57 48 42 38 40
18 16 18 20 20 19 17 19 23 29 31 33 37 41 40 42 39 36 35 35 36 34 35 35 36 37 40 42 42 44 42 41 48 47 47 47 52 43 50 52 51 41 42
36 32 27 23 22 20 24 26 27 26 30 35 37 39 39 39 40 41 42 42 40 39 39 37 37 38 39 40 41 41 43 48 46 44 50 51 47 39 34 46 44 35 41
40 38 39 37 35 33 28 29 29 37 33 29 29 33 36 38 38 39 41 42 45 46 45 44 44 43 42 44 44 43 46 47 46 45 49 49 49 44 43 50 40 34 43
47 45 45 45 39 41 40 42 38 40 38 41 37 31 29 33 35 35 38 40 42 41 39 41 44 46 47 47 47 48 49 48 49 45 46 47 43 42 45 48 37 39 44

GFSMA_700_spd_252.txt.gz
Wind_Speed
17 17 16 16 15 15 15 15 17 18 19 19 18 17 16 15 13 12 12 11 11 11 12 13 14 14 14 15 16 17 18 18 19 20 20 21 21 21 21 22 22 22 23
18 18 18 18 18 17 17 18 18 20 21 21 20 18 17 16 15 14 14 14 14 15 14 14 14 15 16 17 18 19 20 20 20 21 21 22 22 23 23 23 23 23 24
20 20 20 21 20 20 20 21 21 21 21 21 21 20 19 18 17 17 17 17 17 16 16 16 16 17 18 18 18 19 19 19 20 20 20 20 20 21 22 22 23 24 25
23 23 23 22 22 22 22 23 22 22 22 22 21 21 20 20 19 19 19 19 18 17 18 17 18 18 18 18 18 18 18 19 20 21 21 20 21 21 22 24 25 25 25
26 26 25 25 25 25 25 24 24 24 24 23 23 23 22 21 22 22 21 19 19 18 19 20 19 21 19 19 19 19 19 20 20 21 22 22 22 22 23 24 24 25 25
29 29 28 28 27 28 27 26 26 26 25 25 25 25 24 24 24 23 22 21 20 20 21 21 23 21 22 21 21 21 21 22 22 22 23 23 24 25 25 26 26 27 27
32 31 31 31 30 31 29 28 27 27 27 27 28 27 28 27 27 25 24 22 22 22 23 23 25 25 25 24 25 24 24 24 24 24 25 25 26 25 26 26 28 28 29
35 35 35 35 34 34 34 32 31 31 30 31 30 32 32 30 29 27 25 25 25 25 24 25 27 28 29 30 29 28 30 29 28 27 27 27 27 26 27 27 27 27 27
39 40 40 39 39 38 38 36 36 36 35 36 35 35 35 33 31 31 27 28 28 27 27 28 30 31 32 34 35 35 34 34 34 32 31 30 30 29 28 28 28 28 27
44 43 43 43 42 41 42 41 40 40 40 41 39 37 37 35 36 33 33 30 30 30 28 29 32 33 35 37 38 40 40 39 39 37 34 32 32 31 29 28 28 29 28
46 47 48 46 45 45 43 43 44 44 43 42 42 40 38 37 36 37 36 33 32 32 32 34 36 37 38 38 40 40 40 42 41 39 37 35 32 31 30 29 30 29 29
46 48 50 50 49 49 48 46 46 47 45 45 44 44 42 39 37 39 38 35 37 35 39 36 35 35 39 41 40 40 41 41 42 40 37 35 34 32 30 31 31 29 30
51 50 49 50 50 51 52 52 53 51 49 48 46 45 45 42 39 40 42 40 43 41 43 39 39 38 37 38 40 41 41 42 41 39 37 36 36 34 32 31 31 31 31
54 55 53 52 52 52 54 55 56 55 54 53 51 48 47 46 44 44 45 46 48 47 45 41 40 42 38 36 39 40 42 40 40 39 37 38 38 37 35 34 33 32 32
53 56 56 56 55 54 54 55 57 57 57 57 54 51 50 50 49 49 49 48 50 51 47 40 38 43 47 46 43 43 43 42 42 41 41 41 41 42 40 39 34 33 33
46 54 56 57 55 56 57 57 58 58 59 60 58 56 55 54 52 51 52 53 52 51 52 42 41 44 51 51 48 48 47 44 42 42 43 43 43 45 45 43 39 35 35
39 45 48 53 57 56 54 60 60 59 60 60 61 61 59 58 56 55 54 54 53 50 51 48 49 47 48 53 54 47 48 47 45 45 44 43 42 41 41 43 40 38 37
47 43 44 41 43 51 54 54 58 60 62 62 60 63 64 61 58 53 50 49 47 46 50 53 53 53 48 48 47 45 42 44 47 45 45 43 41 41 38 39 41 40 39
26 34 40 44 52 39 54 42 44 51 62 62 60 61 63 65 64 53 47 44 45 47 50 52 57 53 49 47 43 42 44 45 46 47 47 44 44 43 40 38 39 41 39
17 27 31 28 36 36 39 34 38 44 49 53 55 47 55 58 56 52 47 42 41 41 46 50 55 55 48 46 44 41 41 40 41 41 43 44 42 42 37 37 36 40 47
11 14 19 24 23 26 33 35 40 45 43 48 54 71 64 67 73 78 47 40 42 45 49 51 53 48 43 42 40 38 38 36 36 38 39 39 37 37 38 37 36 35 41
25 16 15 17 19 25 26 29 36 38 35 31 64 81 61 63 65 64 54 63 52 44 52 44 41 40 38 40 37 36 35 33 36 34 39 40 38 40 40 41 38 37 38
45 39 27 22 21 21 22 22 25 29 30 31 32 39 36 45 61 57 52 54 53 50 53 42 39 40 35 34 35 33 34 33 33 34 35 36 36 39 39 39 43 37 39
31 40 52 45 36 32 26 26 26 28 28 26 30 32 43 36 39 43 45 48 48 52 49 42 40 41 40 39 40 40 40 39 39 41 40 42 38 35 36 38 42 41 43
34 35 34 40 43 43 44 34 33 32 30 30 29 28 31 33 35 38 42 45 46 47 46 46 46 46 47 44 46 45 47 42 47 46 44 45 43 42 44 39 43 43 44
41 40 38 38 39 41 40 42 50 43 40 40 36 36 37 34 31 31 35 36 41 40 37 41 42 41 42 43 46 45 46 46 49 50 51 43 43 43 43 44 42 39 44

GFSMA_700_spd_255.txt.gz
Wind_Speed
18 18 18 18 17 17 16 16 17 18 19 19 20 21 20 19 18 16 15 14 13 13 14 15 16 17 17 17 18 18 19 19 20 20 20 20 21 21 22 21 21 21 21
20 20 20 20 20 19 18 19 19 20 21 22 22 21 21 20 19 18 17 16 16 16 17 19 19 19 19 19 20 20 20 19 19 20 19 19 19 20 20 19 19 19 20
23 22 22 22 22 22 21 21 22 22 23 24 23 23 22 21 21 20 19 19 20 19 20 21 20 20 21 21 21 20 20 19 19 19 19 19 19 19 19 20 20 21 22
26 26 26 25 25 25 24 24 24 25 25 25 25 25 24 24 23 22 22 23 23 23 23 22 22 22 22 21 21 21 20 20 20 20 20 20 20 21 21 22 23 23 24
27 29 28 28 28 28 27 26 26 26 27 26 26 27 26 26 25 25 25 25 25 24 24 25 22 22 23 22 22 21 21 21 21 22 22 22 22 22 22 22 23 23 23
28 30 31 30 30 30 30 29 28 28 28 28 28 29 29 29 28 28 27 27 26 25 25 24 25 26 23 23 24 23 23 24 24 24 24 25 25 25 25 25 26 25 25
33 32 32 33 33 33 32 31 30 30 30 30 32 31 32 31 30 30 30 29 28 26 27 26 26 27 26 25 25 26 28 28 28 28 28 27 28 28 27 26 27 27 27
38 36 36 36 36 37 36 35 34 33 33 33 33 34 35 33 33 32 32 32 30 28 28 28 28 28 28 29 30 29 29 32 33 32 32 31 31 30 29 28 28 28 28
41 40 42 41 41 40 40 38 38 38 36 36 37 38 37 37 33 33 36 32 29 31 29 29 30 30 30 31 32 35 33 34 36 38 38 36 34 33 32 31 29 29 30
44 45 46 46 45 45 44 42 41 42 41 41 42 42 40 39 39 39 36 39 35 32 31 32 32 32 32 34 34 35 38 39 38 40 40 38 36 34 32 31 30 30 30
49 47 48 49 50 49 48 48 46 47 47 46 45 46 45 43 43 44 44 40 42 39 35 33 33 34 35 37 37 39 40 42 42 41 40 39 38 36 33 32 30 30 29
47 51 51 51 52 52 52 51 52 52 51 50 50 50 50 50 45 45 46 43 43 40 40 41 39 36 34 36 36 36 38 38 40 41 40 39 38 35 34 34 33 31 30
38 39 50 54 55 53 52 53 56 57 56 56 54 53 52 52 51 50 50 49 46 44 44 43 41 42 40 40 37 34 34 35 36 38 39 39 37 35 35 36 36 34 34
43 46 45 47 55 56 55 55 57 60 60 59 59 57 55 56 53 52 53 52 50 49 46 47 44 44 44 45 39 34 36 37 37 38 39 39 38 37 36 37 38 39 38
44 48 45 48 45 47 54 56 59 61 61 62 62 61 60 59 57 55 55 55 54 53 54 50 50 45 47 48 44 44 41 41 42 42 40 39 39 38 38 40 41 41 42
54 51 46 49 41 42 40 49 55 58 62 64 63 62 62 62 60 59 58 59 59 59 59 55 52 49 47 47 45 46 48 45 44 43 41 41 41 39 40 41 42 41 41
44 53 63 61 51 50 42 50 48 49 54 61 64 63 61 61 61 61 61 62 63 62 64 60 56 51 48 43 45 47 47 51 46 42 38 39 39 41 41 41 40 40 39
26 32 51 59 72 69 63 58 45 53 44 50 57 58 60 60 61 60 61 64 66 64 63 64 59 51 46 43 46 47 48 51 48 43 39 39 41 41 38 39 39 38 39
26 27 35 42 48 69 71 77 46 61 60 46 43 47 52 54 56 61 60 60 64 66 66 66 62 48 46 44 43 47 47 49 47 42 40 38 38 39 39 37 37 36 34
41 33 25 29 33 48 50 60 64 80 64 64 47 41 47 51 55 58 58 61 62 64 62 61 60 57 50 43 43 47 47 42 41 41 39 40 38 36 35 33 34 32 31
42 46 36 26 32 32 30 39 36 59 59 65 35 46 44 46 56 68 60 58 54 53 48 41 43 42 50 51 41 43 42 41 38 38 38 39 38 35 33 33 34 33 36
34 36 46 45 35 30 27 28 27 33 31 31 50 43 51 48 50 49 60 43 52 42 46 46 67 53 79 53 41 46 41 38 40 34 35 37 38 38 36 36 36 34 37
33 35 36 34 36 48 41 35 36 35 28 28 34 43 53 68 59 38 47 64 60 61 55 49 48 41 44 49 47 52 45 40 36 37 39 40 38 36 34 33 34 34 38
37 34 35 36 36 33 37 47 53 41 35 27 27 30 39 51 54 32 42 21 28 44 54 49 49 42 51 57 50 49 44 45 48 47 43 46 45 44 42 38 37 36 39
41 36 36 34 37 37 37 38 42 46 52 57 34 30 31 35 35 31 36 37 37 42 44 49 51 54 55 50 50 47 49 49 49 49 45 51 50 49 48 44 41 40 37
40 39 36 35 36 39 39 39 40 43 44 45 56 43 43 37 35 33 28 31 36 33 33 39 43 46 51 52 47 46 49 51 47 49 43 48 49 49 49 48 46 44 40

GFSMA_700_spd_258.txt.gz
Wind_Speed
16 16 17 17 17 17 16 16 16 17 18 19 20 20 20 19 19 19 17 14 14 13 14 15 15 16 17 18 18 19 19 19 19 18 17 18 18 18 17 17 17 17 18
19 19 19 20 19 20 19 19 18 19 20 21 22 22 22 22 22 21 20 17 16 17 16 17 18 19 20 20 21 20 20 19 18 17 17 17 18 18 18 18 18 18 19
21 22 22 23 23 22 22 22 22 22 22 22 23 24 24 24 23 23 22 21 19 19 19 20 21 21 22 22 22 21 20 19 18 18 18 18 19 19 19 19 19 19 20
20 23 24 24 26 26 26 25 24 24 24 24 25 25 26 26 25 25 25 24 23 23 22 22 23 23 23 23 22 21 20 20 19 19 19 19 19 20 20 21 21 21 21
23 24 26 25 27 28 30 29 28 28 27 27 27 27 28 28 28 28 27 26 26 25 25 26 25 24 23 23 24 22 19 19 20 20 20 21 21 21 21 22 22 23 23
28 27 27 28 28 30 30 32 33 30 30 29 30 30 31 30 31 31 29 29 28 27 27 26 26 26 26 24 23 23 21 21 21 22 23 24 24 24 24 24 24 25 26
36 33 29 29 31 32 33 32 34 35 33 31 33 33 33 34 34 33 31 31 31 29 31 28 27 27 26 26 25 23 23 24 25 26 26 27 28 28 28 27 26 26 27
36 40 35 32 33 36 36 36 36 36 35 35 36 35 37 36 37 33 33 33 33 33 32 29 30 29 28 27 26 26 25 25 26 28 29 30 30 30 30 30 29 28 28
41 39 40 40 39 39 41 39 39 39 39 37 38 40 40 41 36 36 36 36 37 36 33 32 32 31 30 29 29 28 27 27 29 30 32 33 32 32 31 30 30 29 28
37 44 41 42 45 44 44 44 42 43 42 43 42 42 43 42 43 43 39 41 40 38 33 32 31 31 32 32 31 30 31 31 32 33 33 35 36 35 32 31 30 29 28
36 40 35 35 47 47 48 47 47 47 47 47 46 46 47 46 46 49 48 43 45 46 43 40 37 38 37 35 34 33 32 31 33 34 34 34 34 35 35 32 30 30 29
47 44 48 49 46 45 50 50 50 52 53 52 50 50 51 52 52 51 51 49 47 46 46 47 45 42 38 37 36 33 32 33 32 30 29 31 33 35 35 34 31 31 31
46 44 45 33 42 48 45 50 52 53 54 56 57 55 54 55 55 56 56 54 53 50 48 48 46 46 44 42 39 36 35 34 33 30 31 31 32 35 36 35 33 32 33
50 48 56 51 44 41 50 47 47 51 52 56 59 60 60 60 58 58 59 59 59 57 56 53 49 47 47 47 46 43 40 38 35 34 33 34 35 36 35 35 36 36 35
45 50 48 60 50 54 52 47 55 46 51 52 56 59 62 63 62 62 63 63 63 64 64 60 55 50 49 51 52 49 47 43 39 37 35 36 36 38 36 35 35 37 38
47 50 50 52 52 63 56 59 52 51 54 52 52 56 58 62 65 66 66 67 67 68 69 64 61 58 53 53 55 53 51 47 44 43 37 35 37 39 37 35 36 36 38
36 50 52 50 69 47 76 70 49 54 60 50 57 56 53 60 58 66 68 67 69 69 72 68 65 63 60 57 56 56 52 50 48 43 42 38 35 36 38 38 36 36 37
36 40 46 54 45 53 56 62 66 78 68 60 53 51 68 57 49 63 71 68 69 68 69 71 68 68 65 59 58 57 54 51 47 45 43 42 39 36 36 38 37 34 35
37 35 36 40 44 48 50 52 72 74 85 82 71 81 71 66 53 43 80 76 64 70 70 70 70 70 67 61 59 59 57 56 51 46 45 44 42 42 39 38 36 34 32
37 37 38 36 35 40 51 52 54 51 67 79 75 75 77 87 86 79 65 46 59 81 68 66 65 64 57 60 56 53 54 52 53 53 49 52 55 51 42 36 35 35 31
39 36 34 36 40 41 38 46 54 55 55 60 67 62 71 72 81 93 84 85 72 68 71 62 68 61 53 46 48 42 42 42 48 54 60 64 44 44 39 37 36 36 35
37 41 40 35 36 41 41 40 45 47 60 64 44 56 59 59 73 74 52 57 63 54 48 79 78 65 28 27 31 36 38 44 56 63 67 69 49 37 37 35 32 33 35
40 40 41 40 37 37 39 39 40 40 39 50 57 53 44 47 55 52 54 65 72 76 53 39 37 33 45 62 62 48 40 38 48 55 43 47 47 41 39 33 34 35 35
40 39 39 41 40 35 35 38 39 39 37 36 40 46 52 52 52 51 55 45 35 42 38 57 57 58 54 51 51 53 47 45 50 46 41 44 46 45 38 37 38 38 38
47 43 39 37 38 34 34 35 37 38 39 40 40 41 42 50 52 54 54 58 57 30 35 34 26 45 45 40 45 53 48 48 48 50 43 41 44 43 44 42 41 39 38
47 44 38 34 32 33 32 33 34 37 37 37 38 42 44 44 46 50 58 55 66 56 42 34 47 45 36 24 24 28 35 43 46 45 42 43 46 46 47 44 42 41 35